Location: Unspecified
(49.9820°N, 20.4363°E)
Time: 04:10:43
(UTC+02:00)

Vanguard 3 - Pass Details

Date: 15 May 2026
Orbit: 507 x 3204 km, 33.3° (Epoch: 6 June)

Event Time Altitude Azimuth Distance (km) Brightness Sun altitude
Rises 18:53:29 0° 270° (W) 7,132 13.6 11.5°
Reaches altitude 10° 18:59:18 10° 262° (W) 5,974 13.0 10.6°
Maximum altitude 19:13:24 30° 211° (SSW) 3,761 10.8 8.4°
Drops below altitude 10° 19:23:34 10° 156° (SSE) 4,250 10.4 6.9°
Sets 19:26:53 0° 145° (SE) 4,876 10.6 6.4°
